Wind_Speed
26 25 25 25 24 23 22 21 19 17 16 15 14 13 13 13 12 11 10 10 10 9 9 10 10 10 11 10 10 10 11 12 13 13 14 13 13 12 12 11 11 11 10 10
28 27 26 26 25 24 22 21 20 18 16 15 15 14 14 13 11 10 10 10 9 9 10 10 11 10 11 11 11 11 12 12 13 13 13 13 13 13 12 12 12 12 11 10
29 29 28 27 25 24 23 21 20 19 16 16 15 15 14 13 11 10 10 10 10 10 10 11 11 11 11 11 12 12 12 12 13 13 13 13 13 13 13 13 12 12 12 12
31 30 31 26 24 24 23 22 21 19 17 16 15 14 14 13 12 12 11 10 11 10 11 12 12 12 12 12 12 12 13 13 13 13 13 13 14 14 14 14 13 13 13 13
33 32 30 27 25 24 24 23 22 20 18 17 16 15 15 14 13 13 12 11 11 11 11 13 13 13 13 13 12 12 13 14 14 14 14 14 14 14 15 14 14 14 13 14
34 34 32 27 24 24 25 24 22 21 20 18 17 16 15 15 14 14 13 12 12 11 11 12 13 13 13 14 13 13 13 14 14 14 15 15 15 15 16 16 15 15 15 15
34 34 32 27 25 25 26 22 21 21 21 20 18 16 16 16 16 14 13 14 13 13 12 12 13 13 13 14 14 13 14 14 14 14 14 14 15 15 16 16 16 15 15 15
34 33 30 26 26 26 24 22 22 22 21 20 18 18 17 17 17 16 15 15 15 14 13 13 13 14 14 15 15 14 14 15 15 15 15 15 15 15 15 16 17 16 16 16
32 31 29 28 27 26 24 24 23 22 22 21 19 18 17 18 17 17 16 15 15 15 15 15 15 15 15 15 15 15 15 15 15 16 16 16 16 16 16 16 17 17 17 17
32 29 30 29 28 26 25 24 23 22 22 22 21 19 19 19 18 18 17 16 16 16 16 15 16 15 16 16 15 16 15 15 16 16 17 17 17 17 17 17 17 16 17 17
32 30 31 30 29 26 26 25 24 23 22 22 22 21 20 20 19 18 18 17 17 17 16 16 17 17 17 16 16 16 16 17 16 16 17 17 17 17 18 18 18 18 18 18
30 30 32 30 30 28 27 26 25 24 23 21 20 21 21 21 20 19 18 18 18 18 17 17 17 18 18 17 17 17 17 18 18 17 17 18 18 18 18 19 19 19 19 19
31 31 31 30 30 29 28 27 27 25 24 23 22 22 22 21 20 20 19 19 19 18 18 18 17 18 18 17 18 18 18 19 19 19 19 19 19 19 20 20 20 20 20 20
32 32 32 32 31 31 29 28 28 27 25 24 24 23 22 22 21 20 20 20 20 20 19 19 18 18 18 18 18 18 19 19 19 20 20 20 20 20 20 20 21 21 21 21
32 33 32 32 31 30 29 29 29 28 26 25 24 24 23 23 22 21 21 21 21 21 20 19 19 19 19 19 18 19 19 19 20 20 20 21 21 21 20 20 20 21 22 22
33 32 32 32 32 31 30 30 30 29 28 27 26 25 25 24 24 24 23 23 23 22 22 21 20 20 20 19 19 19 19 19 20 21 21 21 21 21 20 20 20 21 22 22
33 33 32 32 32 32 32 31 30 30 28 28 27 27 26 26 25 25 24 24 24 24 23 23 22 22 22 21 20 20 20 20 20 21 21 21 22 22 21 21 21 22 22 22
32 32 32 32 32 31 32 30 30 30 30 29 28 27 27 26 26 25 25 24 24 24 24 24 23 23 22 22 22 22 22 21 21 21 21 21 22 22 22 21 21 22 22 22
31 31 31 32 32 32 31 30 30 31 29 29 28 27 28 27 27 26 25 25 24 24 24 24 24 23 22 22 22 22 22 22 22 22 22 22 22 22 21 21 21 21 21 22
31 31 31 31 31 32 31 30 31 31 29 29 29 28 29 29 28 27 26 26 25 25 25 25 24 24 23 23 23 23 23 24 23 23 22 22 22 22 22 22 22 22 21 21
29 30 30 30 29 30 31 30 30 30 29 29 29 28 28 29 29 28 27 26 26 26 26 26 26 25 24 24 24 24 25 25 25 24 24 24 23 23 24 24 24 23 23 23
28 29 30 30 29 29 29 29 30 30 30 29 28 28 28 28 28 29 28 27 27 27 27 27 27 26 26 26 26 26 26 25 25 25 26 26 25 25 25 25 25 25 25 25
27 28 29 29 29 28 29 29 30 30 30 30 29 29 29 28 28 28 28 28 28 28 27 27 27 28 27 26 26 26 26 26 26 26 26 27 27 27 27 27 27 27 27 27
26 26 28 29 29 28 28 29 30 29 29 29 29 29 29 28 29 29 29 29 29 28 28 27 27 28 27 27 27 26 26 26 26 27 27 28 28 28 27 28 28 28 28 28
25 27 28 28 29 28 28 28 28 28 29 29 30 29 29 29 29 29 29 29 29 29 28 28 28 28 27 27 27 27 27 27 27 27 28 28 28 28 28 28 28 29 29 29
25 26 27 27 27 28 28 28 27 28 29 30 30 29 29 30 30 30 30 30 30 30 29 29 29 29 29 28 28 28 28 28 28 29 28 28 28 28 28 29 29 29 29 29
25 25 26 26 27 27 28 28 28 28 29 30 29 29 29 29 30 30 31 31 30 30 30 30 30 30 30 30 30 30 29 29 29 29 29 29 29 29 29 29 29 30 31 31
Wind_Direction
244 244 244 245 246 248 253 257 261 261 263 267 264 265 270 272 273 273 270 271 267 262 257 247 242 239 237 236 232 226 221 216 216 216 217 218 219 222 222 222 223 225 229 231
244 244 245 244 245 248 251 255 258 259 259 264 263 261 265 266 268 268 266 263 259 258 255 247 243 240 236 235 231 228 222 219 218 218 220 220 220 221 223 223 225 229 232 233
241 243 245 243 243 247 249 251 254 255 255 257 258 259 263 263 264 266 263 260 257 256 256 245 242 238 234 233 229 226 222 222 220 220 221 222 223 223 223 224 227 231 233 236
240 242 243 245 243 245 248 249 251 253 252 252 254 255 256 259 260 262 261 260 257 257 252 245 245 241 234 232 230 226 223 222 220 222 222 223 226 226 227 229 232 236 238 239
239 242 243 243 242 244 247 248 249 250 250 249 250 248 250 253 256 257 258 259 259 256 248 243 241 239 236 231 229 227 223 222 223 224 225 226 228 230 230 231 234 237 241 243
239 242 242 242 242 244 246 245 245 248 248 247 247 246 249 253 254 255 255 254 255 255 250 242 237 235 235 233 230 228 226 225 225 226 227 228 230 232 232 233 236 238 241 243
239 242 243 241 240 242 243 242 243 245 246 247 247 247 248 250 252 253 254 251 251 251 249 242 237 234 234 234 233 234 231 228 227 229 230 231 232 234 235 237 239 241 243 246
240 242 240 240 239 242 245 244 242 242 243 245 247 247 247 247 247 249 251 251 250 248 246 242 239 236 236 235 235 237 236 234 231 232 232 235 237 238 240 239 243 242 244 248
242 243 240 238 239 240 240 240 239 239 239 241 243 245 246 245 244 245 247 247 247 246 247 244 241 238 237 236 238 239 239 238 238 237 236 237 239 241 244 244 246 246 247 249
242 242 239 237 237 238 238 239 238 238 238 238 240 243 244 244 243 245 245 244 245 246 247 246 244 241 238 239 240 239 240 242 243 240 239 239 240 242 246 247 248 249 249 250
240 240 238 237 238 239 239 238 237 238 237 237 240 243 243 242 242 243 243 241 243 245 246 245 244 242 240 240 242 241 241 242 241 240 240 240 242 245 248 249 249 250 250 252
239 238 238 237 237 238 237 236 236 235 237 238 239 240 241 240 240 240 241 241 242 242 242 243 243 243 242 241 240 241 242 242 242 242 242 242 246 249 252 252 250 249 252 255
237 236 236 235 235 237 237 237 235 233 236 238 238 239 239 239 238 238 239 240 240 240 239 240 241 243 242 240 240 242 244 244 244 245 247 248 249 252 253 254 251 250 253 256
236 235 235 234 234 236 238 237 235 233 233 236 236 236 236 237 238 237 237 239 240 240 240 239 241 242 242 243 243 245 245 245 247 248 249 251 251 252 253 253 253 253 255 257
235 235 234 232 231 233 235 236 235 233 233 235 236 236 236 237 237 238 239 239 240 240 240 239 241 242 243 243 245 247 247 249 250 250 252 253 251 253 253 254 254 255 257 258
233 233 232 230 229 230 233 235 236 234 233 234 234 234 235 237 238 239 239 240 239 239 239 239 240 241 243 243 246 247 249 251 252 251 253 254 254 254 255 257 259 258 259 260
233 233 232 232 232 231 232 234 233 231 232 233 233 233 234 236 238 238 238 239 238 237 238 238 238 240 241 244 245 246 249 252 253 252 254 256 256 257 258 259 259 260 261 261
235 233 233 234 233 231 231 231 231 230 231 232 233 232 233 235 235 235 237 238 237 236 237 237 239 240 242 244 246 247 248 251 253 254 255 255 257 259 259 259 260 261 261 263
235 234 234 233 233 231 231 233 232 230 230 230 232 232 233 234 232 233 236 238 238 237 238 240 241 242 244 247 248 248 249 251 253 254 256 255 255 256 257 258 258 261 264 265
234 233 232 232 232 232 232 232 231 230 229 230 231 232 232 232 233 235 237 238 238 238 238 240 243 243 246 249 249 249 250 252 253 255 255 255 255 256 258 259 260 263 264 266
231 231 231 230 231 231 230 230 230 229 228 229 229 231 233 233 234 236 238 238 238 238 240 242 243 244 247 249 251 253 254 253 253 253 254 255 256 258 258 259 262 264 265 268
229 229 229 230 231 232 230 227 227 227 226 227 229 231 233 234 234 236 237 238 239 240 241 242 243 245 247 250 253 255 254 252 252 253 254 256 257 258 258 260 262 264 266 269
229 228 228 228 228 228 227 227 227 227 227 228 230 232 234 234 234 236 237 239 240 241 242 243 244 246 248 251 253 255 254 253 252 253 254 257 258 258 259 260 262 264 266 269
229 227 226 225 225 226 226 227 227 227 227 229 231 232 232 233 234 236 238 239 240 241 242 243 244 246 248 250 252 253 254 254 255 256 256 259 260 261 262 262 263 264 266 268
229 227 225 225 225 225 225 226 228 228 229 230 230 231 232 234 235 237 239 240 240 241 242 243 244 247 249 250 252 253 254 254 256 259 261 260 260 262 263 263 263 264 266 268
226 225 224 225 225 224 225 227 230 231 231 232 232 234 235 235 236 237 240 241 242 243 243 243 245 247 248 250 252 254 255 257 258 258 258 259 259 262 264 265 266 266 267 270
228 226 225 223 224 226 227 229 231 232 234 234 232 234 236 237 237 238 240 242 243 244 244 245 246 248 250 252 253 254 255 257 258 257 258 259 261 263 265 265 266 268 269 270
Height
5799 5802 5804 5806 5808 5809 5810 5811 5812 5814 5814 5815 5815 5815 5816 5816 5816 5816 5817 5817 5817 5817 5818 5818 5819 5819 5820 5821 5822 5823 5825 5826 5828 5830 5831 5833 5835 5836 5837 5839 5840 5841 5843 5844
5792 5794 5796 5799 5801 5803 5804 5806 5807 5808 5809 5810 5810 5811 5812 5812 5813 5813 5814 5814 5815 5815 5815 5815 5816 5817 5818 5819 5820 5821 5822 5824 5826 5827 5829 5830 5832 5834 5835 5836 5838 5839 5840 5841
5784 5787 5788 5791 5795 5797 5799 5800 5802 5803 5806 5805 5806 5807 5808 5809 5810 5810 5810 5811 5812 5813 5813 5813 5814 5814 5815 5816 5818 5819 5820 5822 5823 5825 5826 5828 5829 5831 5832 5834 5835 5836 5838 5839
5777 5780 5780 5788 5790 5791 5793 5795 5796 5798 5799 5801 5802 5803 5804 5805 5806 5807 5807 5808 5809 5809 5810 5811 5811 5812 5813 5814 5815 5816 5818 5819 5821 5822 5824 5825 5827 5828 5830 5831 5832 5834 5835 5836
5769 5770 5773 5779 5783 5785 5786 5788 5791 5793 5795 5796 5797 5799 5800 5801 5802 5803 5804 5805 5805 5806 5807 5808 5808 5809 5810 5811 5812 5813 5815 5816 5818 5819 5821 5822 5824 5825 5827 5828 5829 5831 5832 5833
5760 5763 5766 5774 5777 5778 5781 5782 5785 5787 5789 5791 5792 5794 5796 5797 5798 5799 5800 5801 5802 5803 5804 5805 5805 5806 5808 5808 5809 5811 5812 5813 5815 5816 5818 5819 5821 5822 5823 5825 5826 5827 5829 5829
5751 5754 5759 5766 5770 5771 5774 5778 5780 5781 5783 5785 5788 5790 5792 5792 5793 5795 5796 5797 5798 5799 5800 5801 5802 5803 5805 5806 5807 5808 5809 5811 5812 5813 5815 5816 5818 5819 5820 5821 5822 5824 5825 5826
5744 5747 5754 5760 5762 5764 5767 5771 5773 5775 5777 5779 5782 5784 5785 5787 5789 5790 5792 5793 5794 5795 5797 5798 5799 5800 5801 5802 5803 5804 5806 5807 5808 5810 5811 5813 5814 5815 5816 5817 5819 5820 5821 5822
5738 5743 5748 5751 5754 5757 5760 5763 5766 5768 5771 5774 5776 5778 5780 5782 5784 5785 5787 5788 5790 5791 5792 5794 5795 5796 5797 5799 5800 5801 5802 5803 5804 5806 5807 5809 5810 5811 5812 5813 5815 5816 5817 5817
5730 5734 5739 5742 5746 5749 5752 5755 5759 5761 5765 5767 5770 5772 5774 5776 5778 5780 5782 5783 5785 5786 5788 5789 5791 5792 5793 5794 5796 5797 5798 5799 5800 5801 5803 5804 5806 5807 5808 5809 5810 5811 5812 5813
5722 5726 5730 5734 5738 5742 5745 5748 5752 5755 5758 5761 5763 5766 5769 5771 5772 5774 5776 5778 5780 5782 5783 5785 5786 5787 5789 5790 5791 5793 5794 5795 5796 5798 5799 5800 5801 5802 5804 5805 5806 5807 5808 5808
5715 5719 5722 5727 5731 5734 5738 5741 5745 5748 5752 5754 5757 5759 5762 5764 5767 5769 5771 5773 5775 5777 5778 5780 5781 5783 5784 5786 5787 5789 5790 5791 5792 5794 5795 5796 5797 5798 5799 5800 5801 5802 5803 5803
5707 5711 5714 5719 5723 5727 5730 5734 5738 5742 5745 5748 5751 5753 5756 5758 5761 5763 5765 5767 5769 5771 5773 5775 5776 5778 5779 5781 5783 5784 5785 5787 5788 5789 5790 5791 5792 5793 5794 5795 5795 5796 5797 5798
5698 5702 5706 5711 5715 5719 5723 5727 5731 5734 5738 5741 5744 5747 5750 5752 5755 5757 5760 5762 5764 5766 5768 5770 5771 5773 5774 5776 5777 5779 5780 5781 5783 5784 5785 5786 5787 5788 5789 5789 5790 5790 5791 5792
5690 5694 5698 5703 5707 5711 5715 5719 5723 5727 5730 5734 5737 5740 5743 5746 5749 5751 5754 5756 5758 5760 5762 5764 5766 5768 5769 5771 5772 5773 5775 5776 5777 5778 5779 5780 5782 5782 5783 5783 5784 5785 5785 5785
5682 5685 5690 5694 5699 5703 5707 5712 5716 5720 5723 5727 5730 5733 5737 5740 5742 5745 5747 5750 5752 5755 5757 5759 5761 5763 5764 5765 5767 5768 5769 5770 5772 5773 5774 5775 5775 5776 5777 5777 5778 5778 5779 5779
5674 5678 5682 5687 5691 5696 5700 5704 5707 5712 5716 5719 5723 5726 5729 5732 5735 5738 5741 5743 5746 5748 5751 5753 5755 5756 5758 5759 5761 5762 5763 5764 5765 5766 5768 5769 5769 5770 5770 5771 5771 5772 5772 5773
5666 5671 5675 5679 5683 5687 5692 5695 5699 5703 5707 5712 5715 5718 5722 5725 5728 5732 5734 5737 5739 5742 5744 5746 5748 5750 5751 5753 5755 5756 5757 5758 5759 5760 5761 5762 5763 5763 5764 5764 5765 5765 5766 5766
5658 5662 5667 5671 5675 5679 5683 5687 5691 5695 5699 5703 5707 5711 5714 5718 5721 5724 5727 5730 5733 5735 5737 5739 5741 5743 5745 5746 5748 5749 5750 5752 5753 5753 5754 5755 5756 5757 5757 5758 5758 5759 5759 5759
5651 5655 5658 5662 5666 5671 5675 5679 5683 5687 5691 5696 5699 5703 5707 5710 5714 5717 5720 5723 5725 5728 5730 5732 5734 5736 5738 5739 5741 5742 5744 5745 5745 5746 5747 5748 5749 5750 5751 5751 5752 5752 5752 5753
5644 5647 5650 5654 5658 5663 5667 5671 5675 5680 5684 5688 5692 5696 5699 5702 5706 5709 5713 5715 5718 5720 5723 5725 5727 5729 5731 5732 5734 5735 5736 5737 5738 5739 5740 5741 5742 5743 5744 5744 5745 5745 5746 5746
5636 5640 5643 5647 5651 5655 5659 5663 5667 5672 5676 5680 5684 5688 5691 5694 5698 5701 5704 5708 5710 5712 5715 5717 5719 5721 5723 5724 5726 5727 5728 5729 5730 5731 5732 5733 5734 5735 5736 5736 5737 5738 5738 5738
5630 5633 5636 5640 5644 5648 5651 5655 5660 5664 5668 5672 5676 5680 5683 5687 5690 5693 5696 5699 5702 5704 5706 5709 5711 5713 5714 5716 5717 5718 5719 5720 5721 5723 5724 5725 5726 5727 5727 5728 5729 5729 5730 5730
5623 5626 5630 5633 5637 5641 5645 5648 5653 5657 5661 5664 5668 5671 5675 5678 5682 5685 5688 5690 5693 5695 5698 5700 5702 5704 5705 5707 5708 5709 5710 5711 5713 5714 5715 5716 5717 5717 5718 5719 5720 5720 5720 5721
5617 5620 5623 5627 5630 5634 5638 5642 5646 5649 5653 5657 5660 5663 5667 5670 5673 5676 5679 5682 5684 5687 5689 5691 5693 5695 5696 5698 5699 5701 5702 5703 5704 5705 5706 5707 5707 5708 5709 5710 5710 5710 5711 5711
5611 5614 5617 5621 5624 5628 5632 5635 5639 5643 5646 5649 5653 5656 5659 5662 5665 5667 5670 5673 5675 5678 5680 5682 5684 5685 5687 5689 5690 5691 5692 5693 5694 5695 5696 5697 5698 5699 5700 5700 5701 5701 5701 5701
5605 5608 5611 5614 5618 5621 5625 5629 5632 5635 5639 5642 5645 5648 5651 5653 5656 5658 5661 5664 5666 5668 5670 5672 5674 5676 5678 5679 5681 5682 5683 5684 5685 5686 5686 5688 5688 5689 5690 5690 5690 5691 5691 5691